Weather History for Spirit of St Louis, MO

Change the Weather History Date:

Monday, January 23, 2012

  Actual Average Record
Temperature  
Mean Temperature 42 °F -  
Max Temperature 55 °F 37 °F - (-1)
Min Temperature 28 °F 18 °F - (-1)
Degree Days  
Heating Degree Days 24    
Moisture  
Dew Point 30 °F    
Average Humidity 66    
Maximum Humidity 82    
Minimum Humidity 53    
Precipitation  
Precipitation 0.00 in - - ()
Sea Level Pressure  
Sea Level Pressure 29.81 in    
Wind  
Wind Speed 13 mph (West)    
Max Wind Speed 22 mph    
Max Gust Speed 38 mph    
Visibility 10 miles    
Events      
Averages and records for this station are not official NWS values.
T = Trace of Precipitation, MM = Missing Value Source: NWS Daily Summary

Daily Weather History Graph

Daily Weather History Graph

Search for Another Location

Airport:

Trip Planner

Search our weather history database for the weather conditions in past years. The results will help you decide how hot, cold, wet, or windy it might be!

Date:

Astronomy

Jan. 23, 2012 Rise Set
Actual Time 7:15 AM CST 5:13 PM CST
Civil Twilight 6:46 AM CST 5:42 PM CST
Nautical Twilight 6:14 AM CST 6:14 PM CST
Astronomical Twilight 5:42 AM CST 6:46 PM CST
Moon 7:11 AM CST (1/23) 6:00 PM CST (1/23)
Length of Visible Light 10h 55m
Length of Day
9h 58m
Waxing Crescent, 0% of the Moon is Illuminated
Jan 23
Waxing Crescent
Jan 30
First Quarter
Feb 7
Full
Feb 14
Last Quarter
Feb 21
New

Hourly Weather History & Observations

Time (CST) Temp. Windchill Dew Point Humidity Pressure Visibility Wind Dir Wind Speed Gust Speed Precip Events Conditions
12:54 AM 54.0 °F - 46.9 °F 77% 29.42 in 10.0 mi South 8.1 mph - N/A   Overcast
1:54 AM 55.9 °F - 46.0 °F 69% 29.42 in 10.0 mi SSW 12.7 mph 23.0 mph N/A   Overcast
2:54 AM 55.0 °F - 39.9 °F 57% 29.45 in 10.0 mi SW 21.9 mph 36.8 mph N/A   Overcast
3:54 AM 46.9 °F - 39.0 °F 74% 29.54 in 7.0 mi West 19.6 mph 38.0 mph N/A   Overcast
4:54 AM 44.1 °F 35.4 °F 35.1 °F 71% 29.60 in 7.0 mi West 21.9 mph 31.1 mph N/A   Overcast
5:54 AM 41.0 °F 31.6 °F 30.0 °F 65% 29.65 in 9.0 mi West 20.7 mph 36.8 mph N/A   Overcast
6:54 AM 39.0 °F 30.3 °F 28.9 °F 67% 29.70 in 10.0 mi West 16.1 mph 29.9 mph N/A   Overcast
7:14 AM 37.4 °F 27.8 °F 26.6 °F 65% 29.71 in 10.0 mi West 17.3 mph 38.0 mph N/A   Overcast
7:54 AM 37.0 °F 26.7 °F 27.0 °F 67% 29.75 in 10.0 mi West 19.6 mph 29.9 mph N/A   Mostly Cloudy
8:51 AM 37.4 °F 29.3 °F 26.6 °F 65% 29.79 in 10.0 mi West 12.7 mph 28.8 mph N/A   Overcast
8:54 AM 37.9 °F 28.5 °F 27.0 °F 65% 29.80 in 10.0 mi West 17.3 mph 28.8 mph N/A   Overcast
9:54 AM 39.0 °F 30.6 °F 27.0 °F 62% 29.83 in 10.0 mi West 15.0 mph 27.6 mph N/A   Overcast
10:54 AM 42.1 °F 33.9 °F 28.0 °F 58% 29.84 in 10.0 mi West 17.3 mph 24.2 mph N/A   Mostly Cloudy
11:54 AM 43.0 °F 35.1 °F 28.9 °F 58% 29.84 in 10.0 mi West 17.3 mph 25.3 mph N/A   Mostly Cloudy
12:54 PM 45.0 °F 38.2 °F 28.9 °F 53% 29.84 in 10.0 mi West 15.0 mph 21.9 mph N/A   Overcast
1:54 PM 44.1 °F 38.1 °F 30.0 °F 58% 29.87 in 10.0 mi West 11.5 mph 20.7 mph N/A   Overcast
2:54 PM 44.1 °F 37.4 °F 28.9 °F 55% 29.90 in 10.0 mi West 13.8 mph 23.0 mph N/A   Overcast
3:54 PM 45.0 °F 40.1 °F 28.9 °F 53% 29.92 in 10.0 mi West 9.2 mph - N/A   Partly Cloudy
4:54 PM 42.1 °F 36.1 °F 28.9 °F 60% 29.95 in 10.0 mi WNW 10.4 mph - N/A   Clear
5:54 PM 39.0 °F 34.8 °F 28.0 °F 65% 29.99 in 10.0 mi WNW 5.8 mph - N/A   Clear
6:54 PM 37.4 °F 32.1 °F 26.6 °F 65% 30.00 in 10.0 mi WNW 6.9 mph - N/A   Clear
7:54 PM 35.1 °F 31.0 °F 26.1 °F 70% 30.03 in 10.0 mi WNW 4.6 mph - N/A   Clear
8:54 PM 30.0 °F 26.5 °F 24.1 °F 79% 30.06 in 10.0 mi WSW 3.5 mph - N/A   Clear
9:54 PM 28.9 °F 25.2 °F 24.1 °F 82% 30.08 in 10.0 mi WSW 3.5 mph - N/A   Clear
10:54 PM 30.0 °F 25.2 °F 24.1 °F 79% 30.09 in 10.0 mi WSW 4.6 mph - N/A   Clear
11:54 PM 28.9 °F 21.9 °F 23.0 °F 78% 30.11 in 10.0 mi WSW 6.9 mph - N/A   Clear